GW5110 Weather Reports


time (UTC)temp
C
wind
direction
speed
KPH
gust
KPH
rain 1hr
cm
rain 24hr
cm
rain mn
cm
humidity
%
barometer
mb
20260508000104 11 247 0.0 0.0 0.00 0.03 0.03 67 1016.9
20260507235600 11 262 0.0 0.0 0.00 0.03 0.03 68 1016.8
20260507235057 11 262 0.0 3.2 0.00 0.03 0.03 68 1016.8
20260507234554 11 255 0.0 0.0 0.00 0.03 0.03 68 1016.7
20260507234050 11 239 0.0 3.2 0.00 0.03 0.03 66 1016.6
20260507233547 12 250 0.0 0.0 0.00 0.03 0.03 66 1016.8
20260507233046 12 239 0.0 0.0 0.00 0.03 0.03 65 1016.6
20260507232542 12 256 0.0 3.2 0.00 0.03 0.03 64 1016.4
20260507232040 12 249 0.0 3.2 0.00 0.03 0.03 63 1016.5
20260507231536 13 204 0.0 4.8 0.00 0.03 0.03 63 1016.6
20260507231034 13 264 0.0 4.8 0.00 0.03 0.03 63 1016.7
20260507230530 12 240 0.0 6.4 0.00 0.03 0.03 64 1016.5
20260507230027 12 262 0.0 3.2 0.00 0.03 0.03 63 1016.2
20260507225521 13 269 11.3 12.9 0.00 0.03 0.03 61 1016.4
20260507225018 13 290 1.6 6.4 0.00 0.03 0.03 61 1016.6
20260507224514 13 258 4.8 9.7 0.00 0.03 0.03 61 1016.5
20260507224010 13 266 0.0 1.6 0.00 0.03 0.03 61 1016.4
20260507223507 13 320 4.8 11.3 0.00 0.03 0.03 61 1016.4
20260507223004 13 189 4.8 14.5 0.00 0.03 0.03 62 1016.5
20260507222502 13 248 6.4 11.3 0.00 0.03 0.03 62 1016.5
20260507221957 13 194 0.0 4.8 0.00 0.03 0.03 63 1016.0
20260507221454 13 247 11.3 16.1 0.00 0.03 0.03 62 1016.2
20260507220951 12 238 1.6 9.7 0.00 0.03 0.03 65 1016.0
20260507220448 12 267 0.0 1.6 0.00 0.03 0.03 66 1016.1
20260507215945 12 265 4.8 11.3 0.00 0.03 0.03 66 1016.2
20260507215441 12 239 0.0 0.0 0.00 0.03 0.03 66 1015.9
20260507214939 12 269 1.6 4.8 0.00 0.03 0.03 67 1015.9
20260507214436 12 283 3.2 4.8 0.00 0.03 0.03 66 1015.9
20260507213932 12 225 0.0 1.6 0.00 0.03 0.03 68 1016.2
20260507213428 12 243 6.4 9.7 0.00 0.03 0.03 66 1015.9
20260507212925 12 355 0.0 4.8 0.00 0.03 0.03 67 1015.9
20260507212420 12 256 3.2 16.1 0.00 0.03 0.03 65 1015.9
20260507211918 12 274 3.2 3.2 0.00 0.03 0.03 67 1015.8
20260507211414 12 264 0.0 4.8 0.00 0.03 0.03 67 1015.6
20260507210911 12 256 0.0 6.4 0.00 0.03 0.03 67 1015.8
20260507210408 12 249 0.0 1.6 0.00 0.03 0.03 69 1015.4
20260507205904 12 261 0.0 1.6 0.00 0.03 0.03 68 1015.6
20260507205402 12 238 3.2 6.4 0.00 0.03 0.03 67 1015.6
20260507204858 12 245 0.0 0.0 0.00 0.03 0.03 68 1015.4
20260507204354 12 258 0.0 11.3 0.00 0.03 0.03 68 1015.6
20260507203852 12 280 1.6 9.7 0.00 0.03 0.03 68 1015.6
20260507203350 11 99 0.0 0.0 0.00 0.03 0.03 69 1015.5
20260507202846 11 254 1.6 6.4 0.00 0.03 0.03 69 1015.5
20260507202337 12 235 6.4 11.3 0.00 0.03 0.03 68 1015.6
20260507201832 11 244 3.2 4.8 0.00 0.03 0.03 69 1015.8
20260507201328 12 264 0.0 0.0 0.00 0.03 0.03 69 1015.8
20260507200824 12 205 0.0 9.7 0.00 0.03 0.03 68 1015.8
20260507200320 12 219 0.0 3.2 0.00 0.03 0.03 68 1015.9
20260507195816 12 247 0.0 9.7 0.00 0.03 0.03 71 1016.0
20260507195314 12 234 9.7 20.9 0.00 0.03 0.03 69 1015.8
20260507194812 12 251 3.2 11.3 0.00 0.03 0.03 69 1015.6
20260507194308 12 239 9.7 12.9 0.00 0.03 0.03 69 1015.8
20260507193805 12 245 0.0 11.3 0.00 0.03 0.03 71 1015.7
20260507193302 12 263 8.0 14.5 0.00 0.03 0.03 68 1015.8
20260507192757 13 281 6.4 12.9 0.00 0.03 0.03 66 1015.7
20260507192254 13 222 4.8 6.4 0.00 0.03 0.03 66 1015.7
20260507191750 13 256 4.8 12.9 0.00 0.03 0.03 67 1016.0
20260507191247 13 255 0.0 6.4 0.00 0.03 0.03 66 1016.1
20260507190743 13 243 1.6 3.2 0.00 0.03 0.03 67 1016.2
20260507190242 12 240 9.7 16.1 0.00 0.03 0.03 67 1016.2
20260507185740 12 293 1.6 6.4 0.00 0.03 0.03 69 1016.6
20260507185237 12 201 0.0 3.2 0.00 0.03 0.03 70 1016.4
20260507184735 12 285 0.0 4.8 0.00 0.03 0.03 70 1016.5
20260507184232 12 247 3.2 6.4 0.00 0.03 0.03 70 1016.5
20260507183729 12 275 1.6 3.2 0.00 0.03 0.03 71 1016.6
20260507183226 12 255 6.4 14.5 0.00 0.03 0.03 70 1016.5
20260507182723 11 250 0.0 12.9 0.00 0.03 0.03 69 1016.4
20260507182218 11 251 8.0 14.5 0.00 0.03 0.03 69 1016.2
20260507181715 11 266 0.0 3.2 0.00 0.03 0.03 70 1016.4
20260507181212 11 257 11.3 12.9 0.00 0.03 0.03 69 1016.5
20260507180709 11 262 6.4 9.7 0.00 0.03 0.03 70 1016.5
20260507180205 11 232 6.4 9.7 0.00 0.03 0.03 70 1016.4
20260507175700 11 226 3.2 12.9 0.00 0.03 0.03 71 1016.6
20260507175158 11 240 8.0 11.3 0.00 0.03 0.03 70 1016.1
20260507174655 11 257 1.6 11.3 0.00 0.03 0.03 72 1016.2
20260507174153 11 228 3.2 9.7 0.00 0.03 0.03 72 1016.4
20260507173650 11 263 3.2 9.7 0.00 0.03 0.03 72 1016.1
20260507173147 12 253 1.6 11.3 0.00 0.03 0.03 72 1016.5
20260507172643 12 247 6.4 9.7 0.00 0.03 0.03 71 1016.0
20260507172141 12 268 0.0 9.7 0.00 0.03 0.03 70 1016.1
20260507171641 12 59 0.0 6.4 0.00 0.03 0.03 71 1016.2
20260507171138 12 268 4.8 11.3 0.00 0.03 0.03 68 1016.1
20260507170635 12 244 6.4 6.4 0.00 0.03 0.03 70 1016.5
20260507170133 12 237 1.6 6.4 0.00 0.03 0.03 71 1016.1
20260507165628 12 244 1.6 6.4 0.00 0.03 0.03 70 1016.4
20260507165124 12 257 0.0 1.6 0.00 0.03 0.03 70 1016.4
20260507164620 12 188 1.6 4.8 0.00 0.03 0.03 71 1016.4
20260507164117 12 259 0.0 9.7 0.00 0.03 0.03 70 1016.6
20260507163615 12 263 1.6 1.6 0.00 0.03 0.03 72 1016.7
20260507163113 12 46 0.0 3.2 0.00 0.03 0.03 72 1016.7
20260507162613 11 231 0.0 0.0 0.00 0.03 0.03 72 1016.6
20260507162110 11 246 6.4 11.3 0.00 0.03 0.03 73 1016.6
20260507161606 11 207 0.0 0.0 0.00 0.03 0.03 74 1016.6
20260507161103 11 173 1.6 4.8 0.00 0.03 0.03 75 1016.6
20260507160600 10 293 0.0 4.8 0.00 0.03 0.03 75 1016.6
20260507160056 10 229 0.0 3.2 0.00 0.03 0.03 75 1016.9
20260507155551 10 270 0.0 6.4 0.00 0.03 0.03 75 1016.9
20260507155049 10 243 0.0 3.2 0.00 0.03 0.03 76 1016.8
20260507154545 10 62 0.0 0.0 0.00 0.03 0.03 77 1017.0
20260507154043 10 275 0.0 0.0 0.00 0.03 0.03 76 1017.0
20260507153539 10 236 0.0 0.0 0.00 0.03 0.03 77 1016.8
20260507153035 10 177 0.0 0.0 0.00 0.03 0.03 77 1017.0
20260507152531 9 258 0.0 0.0 0.00 0.03 0.03 78 1016.9
20260507152028 9 239 0.0 1.6 0.00 0.03 0.03 79 1016.8
20260507151524 9 280 0.0 0.0 0.00 0.03 0.03 79 1017.0
20260507151021 9 238 3.2 9.7 0.00 0.03 0.03 81 1017.1
20260507150518 9 275 0.0 0.0 0.00 0.03 0.03 81 1017.2
20260507150015 9 251 0.0 0.0 0.00 0.03 0.03 83 1017.1
20260507145510 9 352 0.0 0.0 0.00 0.03 0.03 83 1017.1
20260507145008 8 126 0.0 0.0 0.00 0.03 0.03 84 1017.2
20260507144504 9 11 0.0 0.0 0.00 0.03 0.03 86 1017.1
20260507144001 8 43 4.8 6.4 0.00 0.03 0.03 86 1017.0
20260507143459 8 233 0.0 0.0 0.00 0.03 0.03 86 1017.2
20260507142955 8 141 0.0 3.2 0.00 0.03 0.03 86 1017.3
20260507142451 8 251 0.0 0.0 0.00 0.03 0.03 88 1017.1
20260507141948 8 43 0.0 0.0 0.00 0.03 0.03 89 1017.2
20260507141444 8 258 0.0 0.0 0.00 0.03 0.03 89 1017.2
20260507140941 8 109 0.0 4.8 0.00 0.03 0.03 89 1017.2
20260507140438 8 258 0.0 0.0 0.00 0.03 0.03 88 1017.3
20260507135936 8 163 0.0 0.0 0.00 0.03 0.03 89 1017.3
20260507135432 8 124 0.0 0.0 0.00 0.03 0.03 89 1017.1
20260507134930 8 245 0.0 0.0 0.00 0.03 0.03 90 1017.1
20260507134426 8 238 0.0 0.0 0.00 0.03 0.03 91 1017.0
20260507133922 8 333 0.0 0.0 0.00 0.03 0.03 91 1017.3
20260507133418 8 248 0.0 1.6 0.00 0.03 0.03 92 1017.2
20260507132917 8 59 0.0 0.0 0.00 0.03 0.03 92 1017.1
20260507132413 8 71 0.0 3.2 0.00 0.03 0.03 92 1017.3
20260507131909 8 75 0.0 0.0 0.00 0.03 0.03 93 1017.3
20260507131406 7 268 0.0 0.0 0.00 0.03 0.03 93 1017.6
20260507130903 8 69 0.0 1.6 0.00 0.03 0.03 93 1017.5
20260507130400 8 192 0.0 0.0 0.00 0.03 0.03 93 1017.5
20260507125859 8 256 0.0 3.2 0.00 0.03 0.03 94 1017.4
20260507125356 8 31 0.0 1.6 0.00 0.03 0.03 94 1017.1
20260507124854 8 89 0.0 0.0 0.00 0.03 0.03 94 1017.3
20260507124349 8 110 0.0 0.0 0.00 0.03 0.03 95 1017.2
20260507123848 8 266 0.0 0.0 0.00 0.03 0.03 95 1017.6
20260507123345 8 291 0.0 0.0 0.00 0.03 0.03 95 1017.5
20260507122841 8 23 0.0 6.4 0.00 0.03 0.03 96 1017.2
20260507122337 8 287 0.0 0.0 0.00 0.03 0.03 96 1017.4
20260507121833 8 253 0.0 1.6 0.00 0.03 0.03 96 1017.4
20260507121329 8 124 0.0 0.0 0.00 0.03 0.03 96 1017.6
20260507120826 8 226 1.6 3.2 0.00 0.03 0.03 96 1017.4
20260507120322 8 90 0.0 3.2 0.00 0.03 0.03 96 1017.1
20260507115818 8 303 0.0 0.0 0.18 0.03 0.03 96 1017.1
20260507115314 8 73 0.0 4.8 0.18 0.03 0.03 96 1017.0
20260507114810 8 252 0.0 0.0 0.00 0.00 0.00 96 1017.0
20260507114307 8 254 3.2 4.8 0.00 0.00 0.00 96 1017.1
20260507113805 8 165 0.0 6.4 0.00 0.00 0.00 96 1016.9
20260507113301 9 129 3.2 6.4 0.00 0.00 0.00 97 1016.9
20260507112759 9 239 0.0 1.6 0.00 0.00 0.00 97 1016.9
20260507112256 9 209 0.0 3.2 0.00 0.00 0.00 97 1016.9
20260507111754 8 258 0.0 0.0 0.00 0.00 0.00 97 1017.0
20260507111250 8 154 0.0 6.4 0.00 0.00 0.00 97 1016.7
20260507110746 9 226 1.6 3.2 0.00 0.00 0.00 97 1016.8
20260507110243 9 267 0.0 0.0 0.00 0.00 0.00 97 1016.8
20260507105740 9 224 0.0 1.6 0.00 0.00 0.00 97 1016.6
20260507105236 9 239 0.0 0.0 0.00 0.00 0.00 97 1016.5
20260507104733 9 249 0.0 0.0 0.00 0.00 0.00 97 1016.6
20260507104230 9 250 0.0 0.0 0.00 0.00 0.00 97 1016.4
20260507103726 9 260 0.0 1.6 0.00 0.00 0.00 97 1016.2
20260507103222 9 239 0.0 0.0 0.00 0.00 0.00 97 1016.5
20260507102719 9 210 0.0 1.6 0.00 0.00 0.00 97 1016.4
20260507102215 9 229 0.0 1.6 0.00 0.00 0.00 97 1016.4
20260507101711 9 36 0.0 1.6 0.00 0.00 0.00 97 1016.0
20260507101207 9 250 0.0 0.0 0.00 0.00 0.00 97 1016.1
20260507100704 9 255 0.0 0.0 0.00 0.00 0.00 97 1016.2
20260507100203 9 253 0.0 0.0 0.00 0.00 0.00 97 1016.1
20260507095700 9 253 0.0 0.0 0.00 0.00 0.00 97 1016.1
20260507095156 9 245 0.0 0.0 0.00 0.00 0.00 97 1016.1
20260507094653 9 252 0.0 0.0 0.00 0.00 0.00 97 1015.9
20260507094150 9 241 0.0 0.0 0.00 0.00 0.00 97 1016.0
20260507093647 9 241 0.0 0.0 0.00 0.00 0.00 97 1016.0
20260507093146 9 301 0.0 0.0 0.00 0.00 0.00 97 1016.4
20260507092642 9 260 0.0 0.0 0.00 0.00 0.00 97 1016.4
20260507092139 9 282 0.0 0.0 0.00 0.00 0.00 97 1016.5
20260507091635 9 283 0.0 0.0 0.00 0.00 0.00 97 1016.4
20260507091132 9 262 0.0 0.0 0.00 0.00 0.00 97 1016.7
20260507090627 9 248 0.0 1.6 0.00 0.00 0.00 97 1016.7
20260507090125 9 230 0.0 0.0 0.00 0.00 0.00 97 1016.6
20260507085622 9 236 0.0 1.6 0.00 0.00 0.00 97 1016.5
20260507085118 10 241 0.0 0.0 0.00 0.00 0.00 97 1016.6
20260507084615 10 135 0.0 1.6 0.00 0.00 0.00 97 1016.5
20260507084112 10 245 0.0 1.6 0.00 0.00 0.00 97 1016.2
20260507083609 10 250 0.0 4.8 0.00 0.00 0.00 97 1016.2
20260507083106 10 245 0.0 6.4 0.00 0.00 0.00 97 1016.6
20260507082601 10 244 0.0 6.4 0.00 0.00 0.00 97 1016.5
20260507082058 10 262 0.0 4.8 0.00 0.00 0.00 97 1016.1
20260507081554 10 259 0.0 0.0 0.00 0.00 0.00 97 1015.9
20260507081051 10 257 0.0 0.0 0.00 0.00 0.00 97 1016.1
20260507080547 10 272 0.0 0.0 0.00 0.00 0.00 97 1016.1
20260507080044 10 244 0.0 0.0 0.00 0.00 0.00 97 1016.1
20260507075539 10 257 0.0 0.0 0.00 0.00 0.00 97 1016.5
20260507075036 10 240 0.0 1.6 0.00 0.00 0.00 97 1016.6
20260507074532 10 283 0.0 0.0 0.00 0.00 0.00 97 1016.4
20260507074031 10 269 0.0 0.0 0.00 0.00 0.00 97 1016.4
20260507073527 10 268 0.0 3.2 0.00 0.00 0.00 97 1016.1
20260507073023 10 271 0.0 0.0 0.00 0.00 0.00 97 1016.2
20260507072521 10 248 0.0 0.0 0.00 0.00 0.00 97 1016.2
20260507072018 10 274 0.0 0.0 0.00 0.00 0.00 97 1016.5
20260507071515 10 268 0.0 0.0 0.00 0.00 0.00 97 1016.4
20260507071012 10 144 0.0 0.0 0.00 0.00 0.00 97 1016.7
20260507070509 10 262 0.0 0.0 0.00 0.00 0.00 97 1016.6
20260507070010 10 117 0.0 0.0 0.00 0.00 0.00 96 1016.8
20260507065502 10 240 0.0 0.0 0.00 0.00 0.00 96 1016.7
20260507064959 10 235 0.0 1.6 0.00 0.00 0.00 96 1016.6
20260507064458 10 248 0.0 1.6 0.00 0.00 0.00 96 1016.8
20260507063955 10 243 0.0 0.0 0.00 0.00 0.00 96 1016.5
20260507063452 10 252 3.2 4.8 0.00 0.00 0.00 96 1016.6
20260507062949 10 248 0.0 0.0 0.00 0.00 0.00 96 1016.7
20260507062446 11 212 0.0 0.0 0.00 0.00 0.00 96 1016.8
20260507061943 10 242 0.0 0.0 0.00 0.00 0.00 96 1017.1
20260507061442 10 244 0.0 0.0 0.00 0.00 0.00 96 1017.1
20260507060940 10 257 0.0 1.6 0.00 0.00 0.00 96 1016.8
20260507060436 11 245 0.0 3.2 0.00 0.00 0.00 96 1016.7
20260507055933 11 226 0.0 4.8 0.00 0.00 0.00 96 1016.8
20260507055428 11 207 0.0 6.4 0.00 0.00 0.00 96 1016.7
20260507054925 11 268 0.0 1.6 0.00 0.00 0.00 96 1016.7
20260507054421 11 248 1.6 3.2 0.00 0.00 0.00 96 1016.4
20260507053919 11 307 0.0 0.0 0.00 0.00 0.00 96 1016.6
20260507053416 11 223 1.6 4.8 0.00 0.00 0.00 96 1016.9
20260507052915 11 255 3.2 4.8 0.00 0.00 0.00 97 1016.7
20260507052412 11 263 0.0 0.0 0.00 0.00 0.00 97 1016.6
20260507051903 11 136 0.0 0.0 0.00 0.00 0.00 97 1016.8
20260507051401 11 261 0.0 0.0 0.00 0.00 0.00 97 1016.8
20260507050857 11 230 0.0 0.0 0.00 0.00 0.00 97 1016.7
20260507050354 11 171 0.0 0.0 0.00 0.00 0.00 97 1016.5
20260507045851 11 260 0.0 0.0 0.00 0.00 0.00 97 1016.8
20260507045347 12 240 0.0 3.2 0.00 0.00 0.00 97 1016.9
20260507044845 12 248 0.0 0.0 0.00 0.00 0.00 97 1017.0
20260507044341 12 244 0.0 3.2 0.00 0.00 0.00 97 1017.2
20260507043837 12 253 0.0 0.0 0.00 0.00 0.00 97 1017.3
20260507043334 12 276 0.0 1.6 0.00 0.00 0.00 97 1017.1
20260507042830 12 261 0.0 6.4 0.00 0.00 0.00 97 1017.0
20260507042325 12 244 3.2 12.9 0.00 0.00 0.00 97 1017.2
20260507041823 12 241 3.2 4.8 0.00 0.00 0.00 97 1017.0
20260507041319 12 240 3.2 4.8 0.00 0.00 0.00 97 1016.4
20260507040816 12 243 0.0 0.0 0.00 0.00 0.00 97 1016.1
20260507040312 12 267 0.0 0.0 0.00 0.00 0.00 97 1015.8
20260507035808 12 238 0.0 0.0 0.13 1.17 1.17 97 1015.7
20260507035306 12 220 0.0 0.0 0.13 1.17 1.17 97 1015.5
20260507034802 12 292 0.0 0.0 0.00 1.14 1.14 97 1015.8
20260507034258 12 138 0.0 0.0 0.00 1.14 1.14 97 1015.6
20260507033757 12 31 0.0 0.0 0.00 1.14 1.14 97 1015.7
20260507033254 12 264 0.0 0.0 0.00 1.14 1.14 97 1015.8
20260507032751 12 74 0.0 0.0 0.00 1.14 1.14 97 1016.0
20260507032247 12 256 0.0 1.6 0.00 1.14 1.14 97 1016.0
20260507031743 12 262 0.0 0.0 0.00 1.14 1.14 97 1016.1
20260507031241 12 114 0.0 0.0 0.00 1.14 1.14 97 1016.2
20260507030737 12 255 0.0 0.0 0.00 1.14 1.14 97 1016.4
20260507030235 12 180 0.0 0.0 0.00 1.14 1.14 97 1016.5
20260507025732 12 83 0.0 0.0 0.00 1.14 1.14 97 1017.0
20260507025229 12 258 0.0 0.0 0.00 1.14 1.14 97 1017.2
20260507024727 12 262 0.0 0.0 0.00 1.14 1.14 97 1017.5
20260507024224 12 235 0.0 0.0 0.00 1.14 1.14 97 1018.0
20260507023719 13 86 0.0 0.0 0.00 1.14 1.14 96 1017.6
20260507023216 13 258 0.0 0.0 0.00 1.14 1.14 96 1017.7
20260507022714 13 266 0.0 0.0 0.00 1.14 1.14 96 1017.6
20260507022210 13 220 0.0 0.0 0.00 1.14 1.14 96 1017.5
20260507021706 13 162 0.0 0.0 0.18 1.14 1.14 96 1017.6
20260507021201 13 262 0.0 0.0 0.18 1.14 1.14 96 1017.6
20260507020700 13 262 0.0 0.0 0.00 1.12 1.12 96 1017.7
20260507020156 13 279 0.0 0.0 0.00 1.12 1.12 96 1017.7
20260507015654 13 269 3.2 4.8 0.00 1.12 1.12 96 1017.5
20260507015151 13 73 0.0 0.0 0.00 1.12 1.12 95 1017.1
20260507014647 13 232 0.0 4.8 0.00 1.12 1.12 95 1017.3
20260507014144 13 275 0.0 3.2 0.00 1.12 1.12 95 1017.0
20260507013641 13 237 0.0 3.2 0.00 1.12 1.12 95 1017.0
20260507013138 13 247 6.4 6.4 0.00 1.12 1.12 95 1017.1
20260507012636 14 221 4.8 9.7 0.13 1.12 1.12 95 1016.9
20260507012130 14 261 3.2 6.4 0.13 1.12 1.12 95 1016.6
20260507011629 14 250 1.6 6.4 0.00 1.09 1.09 95 1016.7
20260507011124 15 235 6.4 11.3 0.00 1.09 1.09 95 1016.5
20260507010620 15 238 1.6 6.4 0.00 1.09 1.09 94 1016.0
20260507010115 15 256 0.0 0.0 0.00 1.09 1.09 94 1015.7
20260507005613 15 261 0.0 4.8 0.00 1.09 1.09 94 1015.5
20260507005109 15 259 4.8 6.4 0.00 1.09 1.09 94 1015.4
20260507004607 15 256 0.0 0.0 0.00 1.09 1.09 94 1015.0
20260507004104 15 271 0.0 0.0 0.18 1.09 1.09 94 1014.8
20260507003600 16 253 0.0 0.0 0.36 1.09 1.09 94 1014.8
20260507003055 16 90 0.0 0.0 0.18 1.07 1.07 94 1015.1
20260507002552 16 168 0.0 0.0 0.13 1.04 1.04 93 1015.4
20260507002047 16 290 0.0 1.6 0.30 1.02 1.02 93 1015.5
20260507001544 16 57 0.0 0.0 0.48 1.02 1.02 92 1015.5
20260507001042 16 75 0.0 0.0 0.30 0.97 0.97 91 1015.9
20260507000538 17 248 0.0 0.0 0.30 0.94 0.94 90 1016.1